Romain Hue

Romain Hue

Statistiques 2021

  • Courses courues : 48
  • Nb de victoires : 8
  • Nb de places : 19
  • Écart gagnant : 1
  • Réussite à la gagne : 17%
  • Réussite à la place : 40%
Musique : 0a 1a 4a 6a 6a 3a Da 4a 2a 8a 3a 6a 2a Da 5a 5a 6a 1a
DateRangCatégorieAlloc.Dist.HippodromeChevalRed. KmSpé.
26/09/21 0 Trot 13 000€ 2 725m Evreux Gentledor Attelé
26/09/21 1 Trot 12 000€ 2 725m Evreux Iloa Josselyn Attelé
22/09/21 4 Trot 22 000€ 2 400m Amiens Guimauve Delb 1'13"8 Attelé
20/09/21 6 Trot 20 000€ 2 850m Laval It's Eagle Coglais 1'16"3 Attelé
19/09/21 6 Trot 10 000€ 2 675m Alencon Happy Rare Attelé
19/09/21 3 Trot 13 000€ 2 650m Alencon Ines d'Atout Attelé
13/09/21 D Trot 20 000€ 2 400m Beaumont De Lomagne Holero Love Attelé
13/09/21 4 Trot 20 000€ 2 400m Beaumont De Lomagne Izira Josselyn 1'16"1 Attelé
12/09/21 2 Trot 24 000€ 2 825m Bernay Guimauve Delb Attelé
12/09/21 8 Trot 12 000€ 2 300m Bernay Jipsy du Noyer Attelé
05/09/21 3 Trot 12 000€ 2 575m Dieppe Herbiere 1'21"9 Attelé
03/09/21 6 Trot 18 000€ 2 850m Laval It's Eagle Coglais 1'16"4 Attelé
29/08/21 2 Trot 16 000€ 2 800m Bernay Happyday Verdieres Attelé
29/08/21 D Trot 10 000€ 2 300m Bernay Jipsy du Noyer Attelé
24/08/21 5 Trot 22 000€ 2 750m Cabourg Iseria Griff 1'17"9 Attelé
22/08/21 5 Trot 12 000€ 2 750m La Ferte Vidame Ines d'Atout Attelé
19/08/21 6 Trot 23 000€ 2 875m Meslay Du Maine Elfe Pierji 1'14"7 Attelé
29/07/21 1 Trot 12 000€ 2 700m Graignes Herbiere 1'16"1 Attelé
27/07/21 8 Trot 22 000€ 2 725m Cabourg Iseria Griff 1'16"5 Attelé
25/07/21 2 Trot 12 000€ 2 400m Domfront Fatal Haufor Attelé
24/07/21 2 Trot 11 000€ 2 700m Segre Ines d'Atout Attelé
21/07/21 D Trot 33 000€ 2 875m Enghien Soisy Izira Josselyn Attelé
11/07/21 D Trot 11 000€ 2 475m Francheville Igea Josselyn Attelé
10/07/21 6 Trot 14 000€ 2 900m Clairefontaine Fonce Vicomte Attelé
04/07/21 2 Trot 11 000€ 2 525m Chinon Herduno Attelé
02/07/21 5 Trot 13 000€ 2 800m Villedieu Les Poeles Good Night Medy Attelé
26/06/21 1 Trot 18 000€ 2 700m La Capelle Izira Josselyn 1'16"3 Attelé
24/06/21 8 Trot 16 000€ 2 850m Mauquenchy Gucci de Barb 1'18"8 Attelé
12/06/21 4 Trot 23 000€ 2 725m Lisieux Iseria Griff 1'17"3 Attelé
05/06/21 5 Trot 22 000€ 2 825m Pontchateau Gondole de Blary 1'14"6 Attelé lire

Après avoir attendu en queue de peloton, a bien conclu tout en perdant la quatrième place près du but.

03/06/21 5 Trot 21 000€ 2 825m Le Croise Laroche Elegant Castelets 1'15"6 Attelé
31/05/21 1 Trot 16 000€ 2 925m Amiens Falcon d'Espace 1'16"2 Attelé
30/05/21 1 Trot 13 000€ 2 825m Vire Fonce Vicomte 1'16"1 Attelé
16/05/21 D Trot 14 000€ 3 250m Vitre Gourgandine Attelé
13/05/21 D Trot 13 000€ 3 225m Fougeres Gabello Jephi Attelé
12/05/21 3 Trot 15 000€ 2 825m Chartres Falcon d'Espace 1'14"1 Attelé
11/05/21 2 Trot 18 000€ 2 100m Vincennes Danse Cadence 1'12"8 Attelé
09/05/21 D Trot 17 000€ 2 900m Arras El Tresor Attelé
09/05/21 D Trot 12 000€ 2 900m Arras Hash Boum Bang Attelé
08/05/21 D Trot 13 000€ 2 450m Castillonnes Imurtioli Attelé
27/04/21 4 Trot 34 000€ 2 700m Vincennes Gloria d'Obret 1'15"1 Attelé lire

Après avoir attendu, a rejoint les animatrices dans la montée, puis a coincé pour finir.

26/04/21 5 Trot 18 000€ 2 550m Reims Gabello Jephi 1'14"8 Attelé
25/04/21 1 Trot 17 000€ 2 650m Cordemais Ipona Gwen 1'15"3 Attelé
20/04/21 2 Trot 18 000€ 2 100m Vincennes Danse Cadence 1'12"7 Attelé
11/03/21 1 Trot 18 000€ 2 200m Caen Gina Bourbon 1'16"8 Attelé
21/02/21 1 Trot 11 000€ 2 675m Le Mont Saint Michel Iseria Griff 1'18"2 Attelé
24/01/21 D Trot 11 000€ 2 875m Argentan Iseria Griff Attelé
23/12/20 1 Trot 16 000€ 2 800m Pontchateau Ephaistos 1'17"3 Attelé
13/12/20 D Trot 29 000€ 2 850m Vincennes Histoire Pierji Attelé
29/11/20 2 Trot 13 000€ 2 625m Cherbourg Fame d'Obret 1'14"9 Attelé